Vigo, Spain

3:56 PM CEST on June 25, 2017 (GMT +0200)
Vigo

Weather History for LEVX - September, 2012

Change the Weather History Date:

Sunday, September 30, 2012

  Actual Average Record
Temperature  
Mean Temperature 60 °F -  
Max Temperature 69 °F 63 °F 89 °F (1997)
Min Temperature 50 °F 51 °F 48 °F (2008)
Degree Days  
Heating Degree Days 6    
Growing Degree Days 10 (Base 50)    
Moisture  
Dew Point 50 °F    
Average Humidity 73    
Maximum Humidity 88    
Minimum Humidity 49    
Precipitation  
Precipitation 0.00 in 0.27 in - ()
Sea Level Pressure  
Sea Level Pressure 30.14 in    
Wind  
Wind Speed 5 mph ()    
Max Wind Speed 12 mph    
Max Gust Speed -    
Visibility 19.0 miles    
Events      
Averages and records for this station are not official NWS values.
T = Trace of Precipitation, MM = Missing Value Source: Averaged Metar Reports

Daily Weather History Graph

Daily Weather History Graph

Search for Another Location

Airport or City:

Trip Planner

Search our weather history database for the weather conditions in past years. The results will help you decide how hot, cold, wet, or windy it might be!

Date:

Astronomy

Sep. 30, 2012 Rise Set
Actual Time 8:30 AM CEST 8:17 PM CEST
Civil Twilight 8:02 AM CEST 8:45 PM CEST
Nautical Twilight 7:30 AM CEST 9:17 PM CEST
Astronomical Twilight 6:57 AM CEST 9:50 PM CEST
Moon 8:12 PM CEST (9/30) 8:49 AM CEST (9/30)
Length of Visible Light 12h 42m
Length of Day
11h 46m
Full, 100% of the Moon is Illuminated
Sep 30
Full
Oct 8
Last Quarter
Oct 15
New
Oct 22
First Quarter
Oct 29
Full

Hourly Weather History & Observations

Time (CEST) Temp. Dew Point Humidity Pressure Visibility Wind Dir Wind Speed Gust Speed Precip Events Conditions
12:00 AM 55.4 °F 48.2 °F 77% 30.12 in - North 4.6 mph - N/A   Clear
12:30 AM 55.4 °F 48.2 °F 77% 30.12 in - North 5.8 mph - N/A   Clear
1:00 AM 55.4 °F 48.2 °F 77% 30.12 in - NNE 4.6 mph - N/A   Clear
1:30 AM 55.4 °F 48.2 °F 77% 30.12 in - North 4.6 mph - N/A   Clear
2:00 AM 56 °F 50 °F 73% 30.14 in 19 mi North 11.5 mph - -  
2:00 AM 55.4 °F 48.2 °F 77% 30.12 in - NNE 8.1 mph - N/A   Clear
2:30 AM 55.4 °F 48.2 °F 77% 30.12 in - North 6.9 mph - N/A   Clear
3:00 AM 55.4 °F 48.2 °F 77% 30.12 in - NNE 6.9 mph - N/A   Clear
3:30 AM 55.4 °F 48.2 °F 77% 30.12 in - NNE 5.8 mph - N/A   Clear
4:00 AM 53.6 °F 48.2 °F 82% 30.12 in - North 6.9 mph - N/A   Clear
4:30 AM 53.6 °F 48.2 °F 82% 30.12 in - NNE 5.8 mph - N/A   Clear
5:00 AM 53.6 °F 48.2 °F 82% 30.12 in - NNE 5.8 mph - N/A   Clear
5:30 AM 53.6 °F 48.2 °F 82% 30.12 in - North 4.6 mph - N/A   Clear
6:00 AM 51.8 °F 48.2 °F 88% 30.12 in - SW 8.1 mph - N/A   Clear
6:30 AM 51.8 °F 48.2 °F 88% 30.12 in - SSW 8.1 mph - N/A   Clear
7:00 AM 51.8 °F 48.2 °F 88% 30.12 in - SW 9.2 mph - N/A   Clear
7:30 AM 51.8 °F 48.2 °F 88% 30.12 in - Variable 3.5 mph - N/A   Clear
8:00 AM 52 °F 49 °F 87% 30.15 in 19 mi SW 6.9 mph - -   Clear
8:00 AM 50.0 °F 46.4 °F 87% 30.12 in - SW 5.8 mph - N/A   Clear
8:30 AM 50.0 °F 46.4 °F 87% 30.15 in - SSW 6.9 mph - N/A   Clear
9:00 AM 50.0 °F 46.4 °F 87% 30.15 in - SSW 5.8 mph - N/A   Clear
9:30 AM 53.6 °F 50.0 °F 88% 30.15 in - SSW 5.8 mph - N/A   Clear
10:00 AM 53.6 °F 50.0 °F 88% 30.15 in - SSW 4.6 mph - N/A   Clear
10:30 AM 55.4 °F 51.8 °F 88% 30.15 in - SSW 4.6 mph - N/A   Clear
11:00 AM 57.2 °F 51.8 °F 82% 30.18 in - South 3.5 mph - N/A   Clear
11:30 AM 59.0 °F 51.8 °F 77% 30.18 in - SSW 4.6 mph - N/A   Clear
12:00 PM 60.8 °F 53.6 °F 77% 30.18 in - South 5.8 mph - N/A   Clear
12:30 PM 62.6 °F 53.6 °F 72% 30.18 in - South 4.6 mph - N/A   Clear
1:00 PM 64.4 °F 55.4 °F 73% 30.18 in - South 4.6 mph - N/A   Clear
1:30 PM 66.2 °F 53.6 °F 64% 30.18 in - South 3.5 mph - N/A   Clear
2:00 PM 68 °F 54 °F 51% 30.15 in 19 mi South 2.3 mph - -  
2:00 PM 68.0 °F 51.8 °F 56% 30.15 in - Variable 1.2 mph - N/A   Clear
3:00 PM 69.8 °F 51.8 °F 53% 30.15 in - Variable 2.3 mph - N/A   Clear
3:30 PM 69.8 °F 51.8 °F 53% 30.15 in - Variable 3.5 mph - N/A   Clear
4:00 PM 69.8 °F 50.0 °F 49% 30.15 in - West 6.9 mph - N/A   Clear
4:30 PM 69.8 °F 50.0 °F 49% 30.15 in - West 6.9 mph - N/A   Clear
5:00 PM 69.8 °F 50.0 °F 49% 30.15 in - West 8.1 mph - N/A   Clear
5:30 PM 68.0 °F 50.0 °F 52% 30.15 in - West 6.9 mph - N/A   Clear
6:00 PM 68.0 °F 51.8 °F 56% 30.12 in - Variable 5.8 mph - N/A   Clear
6:30 PM 66.2 °F 51.8 °F 60% 30.12 in - West 5.8 mph - N/A   Clear
7:00 PM 68.0 °F 50.0 °F 52% 30.12 in - West 6.9 mph - N/A   Clear
7:30 PM 66.2 °F 51.8 °F 60% 30.12 in - West 4.6 mph - N/A   Clear
8:00 PM 62 °F 50 °F 56% 30.13 in 19 mi West 5.8 mph - -  
8:00 PM 62.6 °F 48.2 °F 59% 30.12 in - West 5.8 mph - N/A   Clear
8:30 PM 60.8 °F 48.2 °F 63% 30.12 in - West 4.6 mph - N/A   Clear
9:00 PM 59.0 °F 50.0 °F 72% 30.12 in - West 2.3 mph - N/A   Clear
9:30 PM 59.0 °F 50.0 °F 72% 30.12 in - Variable 2.3 mph - N/A   Clear
10:00 PM 57.2 °F 50.0 °F 77% 30.15 in - Variable 3.5 mph - N/A   Clear
10:30 PM 57.2 °F 50.0 °F 77% 30.15 in - Variable 2.3 mph - N/A   Clear
11:00 PM 57.2 °F 51.8 °F 82% 30.15 in - North 5.8 mph - N/A   Clear
11:30 PM 57.2 °F 51.8 °F 82% 30.15 in - North 5.8 mph - N/A   Clear